Regional Weather Roundup
Issued by NWS

Home | Current Version | Previous Version | Text Only | Print | Product List | Glossary Off
Versions: 1 2 3 4 5 6 7 8 9 10 11 12 13 14 15 16 17 18 19 20 21 22 23 24 25 26 27 28 29 30 31 32 33 34 35 36 37 38 39 40 41 42 43 44 45 46 47 48 49 50

000
ASUS45 KCYS 112110
RWRWY

WYOMING REGIONAL WEATHER ROUNDUP
NATIONAL WEATHER SERVICE CHEYENNE WY
300 PM MDT FRI JUL 11 2014

NOTE:  "FAIR" INDICATES FEW OR NO CLOUDS BELOW 12,000 FEET
WITH NO SIGNIFICANT WEATHER AND/OR OBSTRUCTIONS TO VISIBILITY.

WYZ001-112200-
YELLOWSTONE NATIONAL PARK

CITY           SKY/WX    TMP DP  RH WIND       PRES   REMARKS
LK YELLOWSTONE   N/A     66  49  54 CALM      30.31F
W YELLOWSTONE  NOT AVBL

$$
WYZ002>013-054>058-071-098>099-112200-
NORTHERN WYOMING

CITY           SKY/WX    TMP DP  RH WIND       PRES   REMARKS
JACKSON        PTSUNNY   79  46  31 S9        30.19F
CODY           CLOUDY   N/A N/A N/A N14       30.15R
GREYBULL       PTSUNNY   87  54  32 NW17G29   30.03S
WORLAND        CLOUDY    86  52  30 N15       30.05S
SHERIDAN       PTSUNNY   84  58  40 NW6       30.09F
BUFFALO        CLOUDY    79  59  50 NW10      30.16S
GILLETTE       PTSUNNY   82  61  48 NE8       30.08S
HULETT         FAIR      79  63  57 MISG      30.12
NEWCASTLE      TSTM      70  54  56 MISG      30.13

$$
WYZ014>020-022>026-101>103-112200-
CENTRAL WYOMING

CITY           SKY/WX    TMP DP  RH WIND       PRES   REMARKS
BIG PINEY      CLOUDY    75  43  31 N5        30.28R
PINEDALE       CLOUDY    61  52  72 SE15G23   30.31R THUNDER
DUBOIS         CLOUDY    72  43  35 E13G21    30.26R
LANDER         CLOUDY    75  54  47 SW12      30.15F
RIVERTON       CLOUDY    78  55  44 SW12      30.16S
CASPER         CLOUDY    78  52  40 SW7       30.14S
DOUGLAS        CLOUDY    79  59  50 S13       30.14S

$$
WYZ021-027>030-104>119-112200-
SOUTHERN WYOMING

CITY           SKY/WX    TMP DP  RH WIND       PRES   REMARKS
EVANSTON       CLOUDY    67  52  58 N8        30.30F
KEMMERER       CLOUDY    68  50  52 NW9       30.31F
FORT BRIDGER   MOCLDY    68  52  55 N7        30.33R THUNDER
ROCK SPRINGS   PTSUNNY   77  49  37 SW9       30.23F
DIXON          FAIR      84  48  28 NW8G16    30.22F
RAWLINS        CLOUDY    79  52  38 NW9       30.21F
SARATOGA       CLOUDY    77  50  38 NE6       30.23F
LARAMIE        TSTM      59  56  89 NE10      30.30R FOG
CHEYENNE       LGT RAIN  67  59  75 SE3       30.22S
TORRINGTON     PTSUNNY   75  61  61 N21G30    30.05R

$$


USA.gov is the U.S. government's official web portal to all federal, state and local government web resources and services.